Location: Mauna Kea VIS
(19.7591°N, 155.4561°W)
Time: 23:34:44
(UTC-10:00)

Hubble Space Telescope - Pass Details

Date: 12 December 2025
Orbit: 479 x 481 km, 28.5° (Epoch: 14 January)

Event Time Altitude Azimuth Distance (km) Brightness Sun altitude
Rises 18:45:51 0° 292° (WNW) 2,522 5.0 -14.2°
Maximum altitude 18:51:21 21° 0° (N) 1,123 2.2 -15.4°
Enters shadow 18:52:16 19° 21° (NNE) 1,183 2.1 -15.6°
